COSMOS 2526

Last updated on Sat Dec 13 2025 00:02:50 GMT+0000 (Coordinated Universal Time)

1 43432U 18037A 25346.30175931 -.00000334 00000+0 00000+0 0 9993 2 43432 0.0220 26.6735 0000592 71.0471 220.2302 1.00273347 28083
UTC large
Height (km)
Speed (km/s)
/
Latitude / Longitude
Inclination (degrees)
Orbital Period (minutes)
Azimuth
Elevation
Range (km)
Doppler Factor

Next 0 passes for location: London (51.5072 / 0.1276)

Sorry there are no passes over London.